#timestamp,LO_Frequency,Hit,StdDev 
1584423455.9,286047018.6,P
1584423475.7,286047018.1,P
1584423495.6,286047015.7,P
1584423515.4,286047016.4,Y
1584423535.2,286047000.7,P
1584423555.1,286047001.0,N
1584423556.0,286047001.0,N
1584423575.8,286047000.3,N
1584423595.6,286047001.0,N
1584423615.5,286047001.2,N
1584423635.3,286047000.2,N
1584423655.2,286047000.5,N
1584423675.9,286047000.2,N
1584423695.7,286047000.0,N
1584423715.6,286046999.7,N
1584423735.4,286047002.6,N
1584423755.3,286047001.4,N
1584423775.1,286047001.3,N
1584423776.0,286047001.3,N
1584423795.8,286047001.3,N
1584423815.7,286047004.1,N
1584423835.5,286047004.0,N
1584423855.4,286047004.2,N
1584423875.2,286047001.8,N
1584423895.0,286047004.2,N
1584423895.9,286047004.2,N
1584423915.8,286047004.2,N
1584423935.6,286047003.5,N
1584423955.4,286047003.4,N
1584423975.3,286047005.8,N
1584423995.1,286047005.2,N
1584424015.9,286047004.7,N
1584424035.7,286047005.5,N
1584424055.5,286047003.4,N
1584424075.4,286047003.4,N
1584424095.2,286047005.1,N
1584424115.1,286047003.4,N
1584424116.0,286047003.4,N
1584424135.8,286047004.0,N
1584424155.6,286047003.7,N
1584424175.5,286047007.2,Y
1584424195.3,286047003.2,P
1584424215.1,286047003.6,P
1584424235.9,286047003.7,P
1584424255.7,286047002.7,Y
1584424275.6,286046997.6,P
1584424295.4,286046996.4,N
1584424315.2,286046995.8,N
1584424335.1,286046996.4,N
1584424336.0,286046996.4,N
1584424355.8,286046993.8,N
1584424375.7,286046996.4,N
1584424395.5,286046997.7,N
1584424415.3,286046996.1,N
1584424435.2,286046996.2,N
1584424455.0,286046993.4,N
1584424455.9,286046993.4,N
1584424475.7,286046995.2,N
1584424495.6,286046995.1,N
1584424515.4,286046997.9,N
1584424535.3,286046997.6,N
1584424555.1,286046996.2,N
1584424556.0,286046996.2,N
1584424575.8,286046994.7,N
1584424595.7,286046992.7,Y
1584424615.5,286046995.5,P
1584424635.3,286046994.0,P
1584424655.2,286046993.3,P
1584424675.0,286046994.6,Y
1584424675.9,286046994.6,P
1584424695.8,286046999.2,P
1584424715.6,286046999.0,N
1584424735.4,286046998.2,N
1584424755.3,286047000.8,N
1584424775.1,286047001.1,N
1584424795.9,286047000.2,N
